This is the latest recevied weather packets stored in our database for station/object W2SRH. If no packets are shown the sender has not sent any weather packets the latest 10 day(s).
| Time | Temp. | Humidity | Pressure | Rain* | Wind** | Luminosity | Snow |
|---|---|---|---|---|---|---|---|
| 1777837145 | 14.44° C | 27% | 1003.7 hPa | 0 mm | 3.13 m/s, 304° | - | - |
| 1777836544 | 14.44° C | 27% | 1003.8 hPa | 0 mm | 3.13 m/s, 286° | - | - |
| 1777836525 | 13.89° C | 28% | 1004.1 hPa | 0 mm | 2.68 m/s, 298° | - | - |
| 1777835945 | 14.44° C | 28% | 1004 hPa | 0 mm | 4.02 m/s, 310° | - | - |
| 1777835344 | 13.89° C | 28% | 1004 hPa | 0 mm | 3.58 m/s, 307° | - | - |
| 1777834744 | 13.89° C | 28% | 1004.1 hPa | 0 mm | 2.68 m/s, 298° | - | - |
| 1777834612 | 13.89° C | 29% | 1004.2 hPa | 0 mm | 2.68 m/s, 291° | - | - |
| 1777834145 | 13.89° C | 29% | 1004.2 hPa | 0 mm | 2.68 m/s, 291° | - | - |
| 1777833544 | 13.89° C | 28% | 1004.3 hPa | 0 mm | 2.68 m/s, 312° | - | - |
| 1777832943 | 13.33° C | 28% | 1004.3 hPa | 0 mm | 4.02 m/s, 301° | - | - |
| 1777832344 | 13.33° C | 29% | 1004.2 hPa | 0 mm | 2.24 m/s, 274° | - | - |
| 1777831744 | 12.22° C | 30% | 1004.3 hPa | 0 mm | 3.13 m/s, 293° | - | - |
| 1777831144 | 12.78° C | 30% | 1004.6 hPa | 0 mm | 2.24 m/s, 283° | - | - |
| 1777830544 | 12.78° C | 32% | 1004.6 hPa | 0 mm | 2.68 m/s, 305° | - | - |
| 1777829944 | 12.78° C | 31% | 1004.6 hPa | 0 mm | 3.13 m/s, 309° | - | - |
| 1777829345 | 12.22° C | 33% | 1004.6 hPa | 0 mm | 2.24 m/s, 305° | - | - |
| 1777828744 | 11.67° C | 34% | 1004.7 hPa | 0 mm | 3.13 m/s, 277° | - | - |
| 1777828144 | 12.22° C | 33% | 1004.6 hPa | 0 mm | 1.79 m/s, 318° | - | - |
| 1777827544 | 12.22° C | 33% | 1004.7 hPa | 0 mm | 3.13 m/s, 313° | - | - |
| 1777826944 | 11.67° C | 34% | 1004.7 hPa | 0 mm | 2.24 m/s, 308° | - | - |
| 1777826344 | 10.56° C | 35% | 1004.9 hPa | 0 mm | 3.13 m/s, 293° | - | - |
| 1777825745 | 11.11° C | 34% | 1004.9 hPa | 0 mm | 4.02 m/s, 310° | - | - |
| 1777825144 | 11.67° C | 34% | 1005 hPa | 0 mm | 2.24 m/s, 334° | - | - |
| 1777824543 | 11.67° C | 33% | 1005.1 hPa | 0 mm | 3.13 m/s, 352° | - | - |
| 1777823943 | 11.11° C | 35% | 1005.2 hPa | 0 mm | 1.34 m/s, 301° | - | - |
* Rain latest hour (hover to see other rain measurements)
** Current wind speed in m/s (hover to see current wind gust speed)